Monett, MO

5:55 PM CDT on September 25, 2017 (GMT -0500)
Monett

Weather History for KHFJ - June, 2014

Change the Weather History Date:

Tuesday, June 10, 2014

  Actual Average (KJLN) Record (KJLN)
Temperature  
Mean Temperature 65 °F -  
Max Temperature 71 °F 81 °F 99 °F (1953)
Min Temperature 59 °F 62 °F 44 °F (1988)
Growing Degree Days 15 (Base 50)    
Moisture  
Dew Point 61 °F    
Average Humidity 94    
Maximum Humidity 100    
Minimum Humidity 73    
Precipitation  
Precipitation 0.01 in - - ()
Sea Level Pressure  
Sea Level Pressure 29.74 in    
Wind  
Wind Speed 5 mph (NW)    
Max Wind Speed 13 mph    
Max Gust Speed 17 mph    
Visibility 9 miles    
Events Rain    
Averages and records for this station are not official NWS values.
T = Trace of Precipitation, MM = Missing Value Source: NWS Daily Summary

Daily Weather History Graph

Daily Weather History Graph

Search for Another Location

Airport or City:

Trip Planner

Search our weather history database for the weather conditions in past years. The results will help you decide how hot, cold, wet, or windy it might be!

Date:

Astronomy

Jun. 10, 2014 Rise Set
Actual Time 5:56 AM CDT 8:35 PM CDT
Civil Twilight 5:25 AM CDT 9:05 PM CDT
Nautical Twilight 4:47 AM CDT 9:43 PM CDT
Astronomical Twilight 4:04 AM CDT 10:26 PM CDT
Moon 6:04 PM CDT (6/10) 3:58 AM CDT (6/10)
Length of Visible Light 15h 40m
Length of Day
14h 38m
Waxing Gibbous, 92% of the Moon is Illuminated
Jun 10
Waxing Gibbous
Jun 12
Full
Jun 19
Last Quarter
Jun 27
New
Jul 5
First Quarter

Hourly Weather History & Observations

Time (CDT) Temp. Dew Point Humidity Pressure Visibility Wind Dir Wind Speed Gust Speed Precip Events Conditions
12:15 AM 60.8 °F 60.8 °F 100% 29.70 in 10.0 mi Calm Calm - N/A   Overcast
12:35 AM 60.8 °F 60.8 °F 100% 29.70 in 10.0 mi South 3.5 mph - N/A   Overcast
12:55 AM 60.8 °F 60.8 °F 100% 29.70 in 10.0 mi SE 3.5 mph - 0.01 in   Overcast
1:15 AM 60.8 °F 60.8 °F 100% 29.70 in 10.0 mi ESE 4.6 mph - N/A   Overcast
1:35 AM 60.8 °F 60.8 °F 100% 29.70 in 10.0 mi SSE 4.6 mph - N/A   Overcast
1:55 AM 60.8 °F 60.8 °F 100% 29.70 in 10.0 mi SSE 3.5 mph - N/A   Overcast
2:15 AM 60.8 °F 60.8 °F 100% 29.69 in 10.0 mi SE 5.8 mph - N/A   Overcast
2:35 AM 60.8 °F 60.8 °F 100% 29.69 in 10.0 mi SSE 3.5 mph - N/A   Overcast
2:55 AM 60.8 °F 60.8 °F 100% 29.68 in 10.0 mi South 4.6 mph - N/A   Scattered Clouds
3:15 AM 60.8 °F 60.8 °F 100% 29.68 in 10.0 mi SSE 5.8 mph - N/A   Scattered Clouds
3:35 AM 60.8 °F 60.8 °F 100% 29.67 in 10.0 mi SSE 4.6 mph - N/A   Mostly Cloudy
4:15 AM 60.8 °F 60.8 °F 100% 29.67 in 10.0 mi SSW 3.5 mph - N/A   Overcast
4:35 AM 60.8 °F 60.8 °F 100% 29.68 in 10.0 mi Calm Calm - N/A   Mostly Cloudy
4:55 AM 60.8 °F 60.8 °F 100% 29.69 in 10.0 mi Calm Calm - N/A   Scattered Clouds
5:15 AM 59.0 °F 59.0 °F 100% 29.69 in 7.0 mi NNE 3.5 mph - N/A   Clear
5:35 AM 59.0 °F 59.0 °F 100% 29.69 in 1.2 mi North 3.5 mph - N/A   Overcast
5:55 AM 59.0 °F 59.0 °F 100% 29.70 in 4.0 mi North 3.5 mph - N/A   Overcast
6:15 AM 59.0 °F 59.0 °F 100% 29.71 in 4.0 mi Calm Calm - N/A   Mostly Cloudy
6:35 AM 59.0 °F 59.0 °F 100% 29.70 in 5.0 mi Calm Calm - N/A   Scattered Clouds
7:15 AM 60.8 °F 60.8 °F 100% 29.73 in 10.0 mi NW 5.8 mph - N/A   Mostly Cloudy
7:35 AM 60.8 °F 60.8 °F 100% 29.73 in 4.0 mi NW 5.8 mph - N/A   Overcast
7:55 AM 60.8 °F 60.8 °F 100% 29.73 in 7.0 mi NNW 5.8 mph - N/A   Overcast
8:15 AM 60.8 °F 60.8 °F 100% 29.72 in 5.0 mi North 4.6 mph - N/A   Overcast
8:35 AM 62.6 °F 60.8 °F 94% 29.73 in 10.0 mi NW 5.8 mph - N/A   Overcast
8:55 AM 62.6 °F 62.6 °F 100% 29.73 in 10.0 mi NW 4.6 mph - N/A   Overcast
9:15 AM 64.4 °F 62.6 °F 94% 29.73 in 10.0 mi NW 4.6 mph - N/A   Overcast
9:35 AM 64.4 °F 62.6 °F 94% 29.74 in 10.0 mi NNW 8.1 mph - N/A   Overcast
9:55 AM 64.4 °F 62.6 °F 94% 29.74 in 10.0 mi NNW 5.8 mph - N/A   Overcast
10:15 AM 64.4 °F 62.6 °F 94% 29.74 in 10.0 mi Calm Calm - N/A   Overcast
10:35 AM 64.4 °F 62.6 °F 94% 29.75 in 10.0 mi NW 5.8 mph - N/A   Overcast
10:55 AM 62.6 °F 62.6 °F 100% 29.76 in 10.0 mi NNW 8.1 mph - N/A   Overcast
11:15 AM 64.4 °F 62.6 °F 94% 29.76 in 10.0 mi NNE 4.6 mph - N/A   Overcast
11:35 AM 64.4 °F 62.6 °F 94% 29.75 in 10.0 mi NE 5.8 mph - N/A   Overcast
11:55 AM 66.2 °F 62.6 °F 88% 29.75 in 10.0 mi ENE 6.9 mph - N/A   Overcast
12:15 PM 68.0 °F 60.8 °F 78% 29.74 in 10.0 mi Calm Calm - N/A   Mostly Cloudy
12:35 PM 69.8 °F 62.6 °F 78% 29.74 in 10.0 mi Calm Calm - N/A   Scattered Clouds
12:55 PM 69.8 °F 62.6 °F 78% 29.73 in 10.0 mi Calm Calm - N/A   Scattered Clouds
1:15 PM 71.6 °F 62.6 °F 73% 29.73 in 10.0 mi WNW 4.6 mph - N/A   Mostly Cloudy
1:35 PM 66.2 °F 62.6 °F 88% 29.73 in 10.0 mi WNW 12.7 mph 17.3 mph N/A Rain Rain
2:15 PM 64.4 °F 64.4 °F 100% 29.74 in 7.0 mi NNW 8.1 mph - N/A   Drizzle
2:55 PM 66.2 °F 62.6 °F 88% 29.74 in 5.0 mi NW 12.7 mph - N/A   Light Drizzle
3:35 PM 68.0 °F 62.6 °F 83% 29.74 in 10.0 mi WNW 10.4 mph - N/A   Overcast
3:55 PM 69.8 °F 62.6 °F 78% 29.74 in 10.0 mi WNW 10.4 mph - N/A   Overcast
4:15 PM 69.8 °F 62.6 °F 78% 29.75 in 10.0 mi WNW 10.4 mph - N/A   Mostly Cloudy
4:55 PM 68.0 °F 62.6 °F 83% 29.75 in 10.0 mi West 9.2 mph - N/A   Overcast
5:15 PM 69.8 °F 62.6 °F 78% 29.75 in 10.0 mi West 11.5 mph - N/A   Overcast
5:35 PM 68.0 °F 60.8 °F 78% 29.75 in 10.0 mi NW 9.2 mph - N/A   Overcast
5:55 PM 68.0 °F 62.6 °F 83% 29.75 in 10.0 mi WNW 11.5 mph - N/A   Overcast
6:15 PM 68.0 °F 62.6 °F 83% 29.75 in 10.0 mi WNW 12.7 mph - N/A   Overcast
6:55 PM 64.4 °F 62.6 °F 94% 29.76 in 10.0 mi WNW 11.5 mph 16.1 mph N/A   Overcast
7:15 PM 64.4 °F 60.8 °F 88% 29.77 in 10.0 mi NW 12.7 mph - N/A   Overcast
7:35 PM 62.6 °F 60.8 °F 94% 29.77 in 10.0 mi NW 12.7 mph - N/A   Overcast
7:55 PM 62.6 °F 60.8 °F 94% 29.77 in 10.0 mi NNW 11.5 mph 17.3 mph N/A   Overcast
8:15 PM 62.6 °F 60.8 °F 94% 29.77 in 10.0 mi NW 8.1 mph - N/A   Overcast
8:35 PM 62.6 °F 60.8 °F 94% 29.78 in 10.0 mi NW 10.4 mph - N/A   Overcast
8:55 PM 62.6 °F 59.0 °F 88% 29.79 in 10.0 mi NNW 10.4 mph 17.3 mph N/A   Overcast
9:15 PM 60.8 °F 59.0 °F 94% 29.79 in 10.0 mi NNW 6.9 mph - N/A   Overcast
9:35 PM 60.8 °F 59.0 °F 94% 29.79 in 10.0 mi NW 4.6 mph - N/A   Overcast
9:55 PM 60.8 °F 60.8 °F 100% 29.80 in 10.0 mi WNW 3.5 mph - N/A   Overcast
10:15 PM 60.8 °F 60.8 °F 100% 29.80 in 10.0 mi WNW 3.5 mph - N/A   Overcast
10:35 PM 60.8 °F 60.8 °F 100% 29.81 in 10.0 mi West 4.6 mph - N/A   Overcast
10:55 PM 60.8 °F 60.8 °F 100% 29.81 in 7.0 mi WNW 3.5 mph - N/A   Overcast
11:15 PM 60.8 °F 60.8 °F 100% 29.81 in 10.0 mi WNW 3.5 mph - N/A   Overcast
11:35 PM 60.8 °F 60.8 °F 100% 29.81 in 10.0 mi Calm Calm - N/A   Overcast
11:55 PM 60.8 °F 60.8 °F 100% 29.81 in 7.0 mi Calm Calm - N/A   Overcast